EW9528 Weather Reports


Display with metric or nautical units.
time (UTC)temp
F
wind
direction
speed
MPH
gust
MPH
rain 1hr
in
rain 24hr
in
rain mn
in
humidity
%
barometer
mb
20260901213729 76 136 7.0 10.0 0.00 0.02 0.00 43 1018.9
20260901211728 76 175 7.0 10.0 0.00 0.02 0.00 42 1019.2
20260901210729 76 169 7.0 12.0 0.00 0.02 0.00 43 1019.5
20260901205728 75 158 5.0 8.0 0.00 0.02 0.00 45 1019.6
20260901204728 76 138 2.0 5.0 0.00 0.02 0.00 44 1019.7
20260901203728 77 140 5.0 7.0 0.00 0.02 0.00 43 1019.7
20260901202826 76 133 6.0 9.0 0.00 0.02 0.00 44 1019.7
20260901201827 76 142 5.0 8.0 0.00 0.02 0.00 43 1020.1
20260901200829 77 136 3.0 6.0 0.00 0.02 0.00 44 1020.3
20260901195826 76 168 4.0 8.0 0.00 0.02 0.00 47 1020.3
20260901193826 74 140 4.0 8.0 0.00 0.02 0.00 50 1020.8
20260901192826 74 121 3.0 5.0 0.00 0.02 0.00 48 1020.9
20260901190844 75 172 5.0 8.0 0.00 0.02 0.00 45 1021.1
20260901185928 75 127 4.0 7.0 0.00 0.02 0.00 46 1021.2
20260901184929 74 143 5.0 9.0 0.00 0.02 0.00 49 1021.2
20260901183926 73 127 3.0 7.0 0.00 0.02 0.00 51 1021.5
20260901183026 72 146 3.0 7.0 0.00 0.02 0.00 51 1021.8
20260901182027 72 123 4.0 8.0 0.00 0.02 0.00 51 1022.0
20260901181927 72 174 3.0 7.0 0.00 0.02 0.00 51 1022.1
20260901175927 71 156 6.0 11.0 0.00 0.02 0.00 52 1022.2
20260901174929 71 67 0.0 0.0 0.00 0.02 0.00 51 1022.3
20260901174026 72 140 2.0 5.0 0.00 0.02 0.00 53 1022.5
20260901173043 71 135 0.0 2.0 0.00 0.02 0.00 54 1022.4
20260901172127 70 141 1.0 5.0 0.00 0.02 0.00 58 1022.5
20260901171127 68 112 0.0 2.0 0.00 0.02 0.00 58 1022.5
20260901165128 68 155 3.0 5.0 0.00 0.02 0.00 61 1022.5
20260901164128 66 137 3.0 5.0 0.00 0.02 0.00 64 1022.4
20260901163126 65 116 2.0 5.0 0.00 0.02 0.00 66 1022.5
20260901163028 65 135 3.0 5.0 0.00 0.02 0.00 65 1022.4
20260901161027 66 154 2.0 4.0 0.00 0.02 0.00 65 1022.5
20260901160026 66 157 2.0 4.0 0.00 0.02 0.00 63 1022.4
20260901155028 66 156 6.0 9.0 0.00 0.02 0.00 66 1022.5
20260901154126 65 157 0.0 0.0 0.00 0.02 0.00 68 1022.4
20260901153128 63 180 3.0 3.0 0.00 0.02 0.00 72 1022.5
20260901152128 62 180 0.0 0.0 0.00 0.02 0.00 73 1022.5
20260901152027 62 180 0.0 0.0 0.00 0.02 0.00 73 1022.5
20260901151028 62 180 0.0 2.0 0.00 0.02 0.00 71 1022.7
20260901150027 62 180 3.0 5.0 0.00 0.02 0.00 70 1022.7
20260901144128 63 45 0.0 1.0 0.00 0.02 0.00 67 1022.5
20260901143128 62 360 0.0 0.0 0.00 0.02 0.00 69 1022.5
20260901142127 62 225 0.0 0.0 0.00 0.02 0.00 69 1022.5
20260901135226 58 225 0.0 0.0 0.00 0.02 0.00 75 1022.1
20260901134227 58 225 0.0 2.0 0.00 0.02 0.00 77 1022.0
20260901133227 57 225 0.0 0.0 0.00 0.02 0.00 79 1021.9
20260901132246 56 225 1.0 3.0 0.00 0.02 0.00 81 1021.9
20260901131228 56 225 0.0 0.0 0.00 0.02 0.00 82 1021.8
20260901130228 55 225 0.0 0.0 0.00 0.02 0.00 84 1021.7
20260901124243 54 225 0.0 1.0 0.00 0.02 0.00 85 1021.6
20260901122228 55 225 0.0 1.0 0.00 0.02 0.00 85 1021.8
20260901121230 55 225 1.0 2.0 0.00 0.02 0.00 85 1021.7
20260901120326 55 225 2.0 4.0 0.00 0.02 0.00 86 1021.8
20260901115326 55 225 0.0 0.0 0.00 0.02 0.00 87 1021.8
20260901114329 55 225 0.0 1.0 0.00 0.02 0.00 86 1021.6
20260901113344 54 225 0.0 0.0 0.00 0.02 0.00 87 1021.6
20260901111426 54 225 0.0 0.0 0.00 0.02 0.00 85 1021.5
20260901111327 54 225 0.0 0.0 0.00 0.02 0.00 85 1021.5
20260901105327 55 225 0.0 0.0 0.00 0.02 0.00 84 1021.8
20260901104329 55 225 0.0 0.0 0.00 0.02 0.00 83 1021.6
20260901103327 56 225 0.0 0.0 0.00 0.02 0.00 82 1021.7
20260901102329 56 225 1.0 3.0 0.00 0.02 0.00 81 1021.7
20260901101427 57 225 1.0 3.0 0.00 0.02 0.00 81 1021.8
20260901100426 57 225 2.0 3.0 0.00 0.02 0.00 81 1022.0
20260901094429 57 225 2.0 4.0 0.00 0.02 0.00 80 1022.0
20260901093525 56 225 0.0 1.0 0.00 0.02 0.00 82 1021.9
20260901093427 56 225 0.0 1.0 0.00 0.02 0.00 82 1021.9
20260901092527 56 225 0.0 0.0 0.00 0.02 0.00 81 1021.9
20260901091540 56 225 0.0 0.0 0.00 0.02 0.00 81 1021.9
20260901085726 57 225 0.0 0.0 0.00 0.02 0.00 78 1022.0
20260901084728 58 225 0.0 0.0 0.00 0.02 0.00 77 1021.9
20260901082745 59 225 1.0 1.0 0.00 0.02 0.00 75 1022.0
20260901081827 59 225 2.0 4.0 0.00 0.02 0.00 75 1022.1
20260901080828 59 247 3.0 6.0 0.00 0.02 0.00 76 1022.0
20260901075844 59 202 2.0 4.0 0.00 0.02 0.00 75 1022.1
20260901074928 59 247 1.0 2.0 0.00 0.02 0.00 76 1022.0
20260901073928 59 270 1.0 2.0 0.00 0.02 0.00 76 1022.1
20260901071928 59 270 1.0 4.0 0.00 0.02 0.00 75 1022.1
20260901070944 59 270 2.0 4.0 0.00 0.02 0.00 77 1022.1
20260901065942 59 315 0.0 0.0 0.00 0.02 0.00 77 1022.0
20260901065028 60 315 0.0 0.0 0.00 0.02 0.00 76 1022.1
20260901064126 60 315 0.0 0.0 0.00 0.02 0.00 74 1022.0
20260901063128 60 315 0.0 1.0 0.00 0.02 0.00 74 1022.1
20260901063026 60 315 1.0 2.0 0.00 0.02 0.00 74 1022.1
20260901062027 61 292 2.0 3.0 0.00 0.02 0.00 72 1022.2
20260901061027 61 270 0.0 1.0 0.00 0.02 0.00 72 1022.3
20260901060037 61 247 2.0 3.0 0.00 0.02 0.00 72 1022.4
20260901055037 61 247 0.0 0.0 0.00 0.02 0.02 72 1022.4
20260901054135 61 270 1.0 2.0 0.00 0.02 0.02 72 1022.3
20260901053137 61 270 1.0 2.0 0.00 0.02 0.02 72 1022.5
20260901051137 62 225 3.0 4.0 0.00 0.02 0.02 71 1022.7
20260901051039 62 218 3.0 5.0 0.00 0.02 0.02 72 1022.7
20260901050038 62 135 2.0 4.0 0.00 0.02 0.02 71 1022.6
20260901045037 62 160 4.0 7.0 0.00 0.02 0.02 69 1022.7
20260901043137 62 176 3.0 6.0 0.00 0.02 0.02 70 1023.2
20260901043038 62 163 4.0 7.0 0.00 0.02 0.02 70 1023.1
20260901041235 61 167 2.0 3.0 0.00 0.02 0.02 74 1023.2
20260901040236 60 180 2.0 4.0 0.00 0.02 0.02 76 1023.4
20260901035236 60 270 0.0 1.0 0.00 0.02 0.02 77 1023.2
20260901034236 60 270 0.0 2.0 0.00 0.02 0.02 76 1023.3
20260901033237 60 292 3.0 4.0 0.00 0.02 0.02 76 1023.1
20260901032236 61 264 4.0 6.0 0.00 0.02 0.02 74 1023.0
20260901031240 61 273 4.0 8.0 0.00 0.02 0.02 74 1023.0
20260901025338 61 243 5.0 7.0 0.00 0.02 0.02 75 1023.0
20260901024436 61 212 4.0 7.0 0.00 0.02 0.02 76 1022.7
20260901023437 61 191 4.0 5.0 0.00 0.02 0.02 78 1022.7
20260901022436 61 165 5.0 7.0 0.00 0.02 0.02 78 1022.7
20260901021436 61 112 2.0 4.0 0.00 0.02 0.02 76 1022.7
20260901020534 62 116 3.0 7.0 0.00 0.02 0.02 76 1023.0
20260901015538 62 124 5.0 10.0 0.00 0.02 0.02 72 1022.7
20260901014637 62 147 1.0 4.0 0.00 0.02 0.02 69 1023.2
20260901012735 62 184 5.0 7.0 0.01 0.02 0.02 72 1023.4
20260901011735 62 180 4.0 5.0 0.02 0.02 0.02 69 1023.6
20260901005736 62 202 0.0 0.0 0.02 0.02 0.02 67 1024.0
20260901004753 62 225 2.0 6.0 0.02 0.02 0.02 67 1024.1
20260901003836 62 243 5.0 6.0 0.02 0.02 0.02 65 1024.4
20260901002836 64 243 7.0 11.0 0.01 0.01 0.01 59 1024.6
20260901001838 66 250 4.0 5.0 0.00 0.00 0.00 56 1024.5
20260901000935 66 270 3.0 5.0 0.00 0.00 0.00 56 1024.4
20260831235937 66 292 0.0 3.0 0.00 0.00 0.00 55 1024.6
20260831234953 66 90 0.0 0.0 0.00 0.00 0.00 55 1024.5
20260831233952 66 205 0.0 1.0 0.00 0.00 0.00 56 1024.0
20260831233835 66 268 1.0 3.0 0.00 0.00 0.00 57 1023.9
20260831232837 66 247 0.0 0.0 0.00 0.00 0.00 56 1023.2
20260831231852 67 267 5.0 9.0 0.00 0.00 0.00 53 1022.8
20260831230937 68 235 8.0 12.0 0.00 0.00 0.00 49 1022.4
20260831225936 70 232 16.0 35.0 0.00 0.00 0.00 45 1021.4
20260831223038 74 179 14.0 23.0 0.00 0.00 0.00 44 1019.2
20260831221135 74 159 13.0 21.0 0.00 0.08 0.00 49 1019.0
20260831220136 75 183 13.0 18.0 0.00 0.08 0.00 46 1019.0
20260831215151 76 187 14.0 20.0 0.00 0.08 0.00 44 1019.0
20260831214135 77 179 10.0 18.0 0.00 0.08 0.00 43 1018.7